DW8004 Weather Reports


time (UTC)temp
C
wind
direction
speed
KPH
gust
KPH
rain 1hr
cm
rain 24hr
cm
rain mn
cm
humidity
%
barometer
mb
20260509064556 -1 218 0.0 0.0 0.00 0.00 0.00 91 1014.6
20260509063036 0 218 0.0 0.0 0.00 0.00 0.00 91 1014.5
20260509061528 0 218 0.0 0.0 0.00 0.00 0.00 91 1014.6
20260509060002 0 218 0.0 0.0 0.00 0.00 0.00 92 1014.7
20260509054557 0 218 0.0 0.0 0.00 0.00 0.00 92 1014.9
20260509053054 0 218 0.0 0.0 0.00 0.00 0.00 92 1014.9
20260509051537 0 218 0.0 0.0 0.00 0.00 0.00 92 1014.9
20260509050050 0 218 0.0 0.0 0.00 0.00 0.00 92 1014.8
20260509044541 0 218 0.0 0.0 0.00 0.00 0.00 91 1014.7
20260509043005 0 218 0.0 0.0 0.00 0.00 0.00 90 1014.6
20260509041550 0 218 0.0 0.0 0.00 0.00 0.00 90 1014.5
20260509034541 0 218 0.0 0.0 0.00 0.00 0.00 89 1014.3
20260509033017 0 218 0.0 0.0 0.00 0.00 0.00 89 1014.3
20260509031530 0 218 0.0 0.0 0.00 0.00 0.00 89 1014.2
20260509030005 1 218 0.0 0.0 0.00 0.00 0.00 88 1014.1
20260509024559 1 218 0.0 0.0 0.00 0.00 0.00 88 1013.9
20260509023052 1 218 0.0 0.0 0.00 0.00 0.00 87 1013.8
20260509021528 1 218 0.0 0.0 0.00 0.00 0.00 86 1013.7
20260509020041 2 218 0.0 0.0 0.00 0.00 0.00 85 1013.5
20260509014606 2 218 0.0 0.0 0.00 0.00 0.00 85 1013.3
20260509013054 3 218 0.0 0.0 0.00 0.00 0.00 83 1013.0
20260509011507 3 218 0.0 0.0 0.00 0.00 0.00 81 1012.8
20260509010101 3 218 0.0 0.0 0.00 0.00 0.00 80 1012.7
20260509004555 4 218 0.0 0.0 0.00 0.00 0.00 78 1012.4
20260509003016 5 218 0.0 0.0 0.00 0.00 0.00 77 1012.0
20260509001608 5 218 0.0 0.0 0.00 0.00 0.00 75 1011.9
20260509000100 6 218 0.0 0.0 0.00 0.00 0.00 74 1011.8
20260508234544 6 218 0.0 0.0 0.00 0.00 0.00 71 1011.7
20260508233023 6 236 0.0 0.0 0.00 0.00 0.00 69 1011.4
20260508231506 7 248 0.0 0.0 0.00 0.00 0.00 68 1011.3
20260508230017 7 246 0.0 0.0 0.00 0.00 0.00 69 1011.2
20260508224632 6 246 0.0 0.0 0.00 0.00 0.00 68 1011.1
20260508223104 7 234 0.0 0.0 0.00 0.00 0.00 66 1010.9
20260508221607 7 348 0.0 0.0 0.00 0.00 0.00 65 1010.9
20260508220049 7 280 0.0 0.0 0.00 0.00 0.00 64 1010.8
20260508214552 7 181 0.0 0.0 0.00 0.00 0.00 65 1010.6
20260508213038 7 292 0.0 0.0 0.00 0.00 0.00 61 1010.5
20260508211537 8 144 0.0 0.0 0.00 0.00 0.00 59 1010.3
20260508210013 8 315 0.0 0.0 0.00 0.00 0.00 57 1010.2
20260508204556 8 322 0.0 0.0 0.00 0.00 0.00 55 1010.1
20260508203107 9 257 0.0 0.0 0.00 0.00 0.00 53 1010.1
20260508201541 8 323 0.0 0.0 0.00 0.00 0.00 55 1009.9
20260508200038 8 276 0.0 0.0 0.00 0.00 0.00 56 1010.0
20260508194532 8 272 0.0 0.0 0.00 0.00 0.00 55 1010.1
20260508193009 8 317 0.0 0.0 0.00 0.00 0.00 57 1010.1
20260508191558 8 326 0.0 0.0 0.00 0.00 0.00 58 1010.3
20260508190050 7 274 0.0 0.0 0.00 0.00 0.00 60 1010.6
20260508184550 7 288 0.0 0.0 0.00 0.00 0.00 58 1010.5
20260508183056 7 236 0.0 0.0 0.00 0.00 0.00 58 1010.6
20260508181507 7 319 0.0 0.0 0.00 0.00 0.00 57 1010.7
20260508180052 7 324 0.0 0.0 0.00 0.00 0.00 59 1010.5
20260508174534 7 293 0.0 0.0 0.00 0.00 0.00 59 1010.7
20260508173030 7 294 0.0 0.0 0.00 0.00 0.00 55 1010.6
20260508171608 7 5 0.0 0.0 0.00 0.00 0.00 57 1010.6
20260508164602 7 328 0.0 0.0 0.00 0.00 0.00 54 1010.8
20260508163050 7 355 0.0 0.0 0.00 0.00 0.00 54 1010.6
20260508161538 7 295 0.0 0.0 0.00 0.00 0.00 51 1010.6
20260508160019 7 207 0.0 0.0 0.00 0.00 0.00 52 1010.6
20260508154532 8 259 0.0 0.0 0.00 0.00 0.00 51 1010.5
20260508153018 7 234 0.0 0.0 0.00 0.00 0.00 52 1010.5
20260508151504 7 249 0.0 0.0 0.00 0.00 0.00 53 1010.5
20260508150033 7 257 0.0 0.0 0.00 0.00 0.00 52 1010.4
20260508144505 7 326 0.0 0.0 0.00 0.00 0.00 53 1010.4
20260508143053 6 242 0.0 0.0 0.00 0.00 0.00 56 1010.4
20260508141554 6 234 0.0 0.0 0.00 0.00 0.00 58 1010.5
20260508140019 6 274 0.0 0.0 0.00 0.00 0.00 63 1010.5
20260508134503 5 341 0.0 0.0 0.00 0.00 0.00 66 1010.8
20260508133056 5 269 0.0 0.0 0.00 0.00 0.00 68 1010.9
20260508131601 5 329 0.0 0.0 0.00 0.00 0.00 73 1011.0
20260508124559 3 229 0.0 0.0 0.00 0.00 0.00 81 1011.1
20260508123048 2 225 0.0 0.0 0.00 0.00 0.00 83 1011.2
20260508121541 2 246 0.0 0.0 0.00 0.00 0.00 85 1011.2
20260508120108 1 253 0.0 0.0 0.00 0.00 0.00 88 1011.3
20260508114601 0 188 0.0 0.0 0.00 0.00 0.00 89 1011.3
20260508113044 0 190 0.0 0.0 0.00 0.00 0.00 90 1011.2
20260508111528 0 190 0.0 0.0 0.00 0.00 0.00 90 1011.1
20260508110053 0 190 0.0 0.0 0.00 0.00 0.00 91 1011.0
20260508104554 0 190 0.0 0.0 0.00 0.00 0.00 91 1010.7
20260508103034 -1 190 0.0 0.0 0.00 0.00 0.00 92 1010.7
20260508101605 -1 190 0.0 0.0 0.00 0.00 0.00 92 1010.6
20260508100052 -1 190 0.0 0.0 0.00 0.00 0.00 93 1010.3
20260508094549 -1 190 0.0 0.0 0.00 0.00 0.00 92 1010.1
20260508093050 -1 190 0.0 0.0 0.00 0.00 0.00 91 1010.1
20260508091537 -1 190 0.0 0.0 0.00 0.00 0.00 91 1009.8
20260508090041 -1 190 0.0 0.0 0.00 0.00 0.00 91 1009.7
20260508084539 -1 190 0.0 0.0 0.00 0.00 0.00 92 1009.7
20260508083051 -1 190 0.0 0.0 0.00 0.00 0.00 91 1009.6
20260508081544 -1 190 0.0 0.0 0.00 0.00 0.00 91 1009.3
20260508080009 -1 190 0.0 0.0 0.00 0.00 0.00 91 1009.4
20260508074553 -1 190 0.0 0.0 0.00 0.00 0.00 91 1009.3
20260508073010 -1 190 0.0 0.0 0.00 0.00 0.00 91 1009.2
20260508071613 -1 190 0.0 0.0 0.00 0.00 0.00 91 1009.1
20260508070028 -1 190 0.0 0.0 0.00 0.00 0.00 90 1008.9